Weather in Lublin

Poland     51°14′52″N   22°34′03″E
temp.,
°C
wind,
m/s
gust,
m/s
humid.,
%
clouds,
%
prec.,
mm/h
press.,
hPa
HPBL,
m
16 may, sun
sun1623:00+10sse3387100 0.0 100933
02:00+10se3789100 0.0 1009126
05:00+10se41089100 0.1 1008252
08:00+14sse5881100 0.1 1008379
11:00+17s5663100 0.0 10071167
14:00+19s6860100 0.7 10061761
17:00+18ssw4565100 0.8 10051049
20:00+14sw4787100 2.7 1005155
17 may, mon
mon1723:00+12wsw3696100 0.1 1007224
02:00+11wsw3595100 0.1 1007188
05:00+10sw34945 0.0 100783
08:00+14ssw23780 0.0 1007347
11:00+18s23590 0.0 10061206
14:00+20sse3350100 0.0 10051961
17:00+17e3570100 0.0 1003138
20:00+15ese3371100 0.0 100356
18 may, tue
tue1823:00+14s3367100 0.1 100255
02:00+11w5998100 0.2 1002270
05:00+10wnw5998100 0.6 1001400
08:00+10wnw71297100 6.1 1002720
11:00+10w81495100 4.4 1004932
14:00+10wnw91494100 9.1 1005979
17:00+10wnw81494100 3.4 1006894
20:00+10wnw41095100 4.4 1008581
19 may, wed
wed1923:00+9w51195100 0.1 1008328
02:00+8w51197100 0.1 1010377
05:00+7w5129836 0.0 1011358
08:00+11nw6118432 0.0 1012655
11:00+14wnw677062 0.4 10121298
14:00+14nw577121 0.8 1012956
17:00+14nw6774100 1.4 10121058
20:00+10wnw37921 1.9 1013155
20 may, thu
thu2023:00+8wnw47955 0.0 1014128
02:00+7nw34965 0.0 101469
05:00+6nw339758 0.0 101458
08:00+11nw3486100 0.0 1015416
11:00+14nw5666100 0.4 10141261
14:00+16nnw5554100 0.5 10141984
17:00+15nnw4560100 0.1 10151405
20:00+11nw4983100 0.2 1016212